Wolf Point, MT

3:30 PM MDT on April 28, 2017 (GMT -0600)
Clayton

Weather History for KOLF - January, 2014

Change the Weather History Date:

Wednesday, January 1, 2014

  Actual Average Record
Temperature  
Mean Temperature 4 °F -  
Max Temperature 9 °F 24 °F 42 °F (2000)
Min Temperature -1 °F 0 °F -24 °F (2011)
Degree Days  
Heating Degree Days 61    
Cooling Degree Days 0    
Moisture  
Dew Point 0 °F    
Average Humidity 75    
Maximum Humidity 80    
Minimum Humidity 66    
Precipitation  
Precipitation 0.02 in 0.01 in 0.02 in (1999)
Month to date precipitation 0.02 0.01  
Year to date precipitation 0.02 0.01  
Sea Level Pressure  
Sea Level Pressure 30.39 in    
Wind  
Wind Speed 5 mph (West)    
Max Wind Speed 13 mph    
Max Gust Speed -    
Visibility 7 miles    
Events Snow    
T = Trace of Precipitation, MM = Missing Value Source: NWS Daily Summary

Daily Weather History Graph

Daily Weather History Graph

Search for Another Location

Airport or City:

Trip Planner

Search our weather history database for the weather conditions in past years. The results will help you decide how hot, cold, wet, or windy it might be!

Date:

Astronomy

Jan. 01, 2014 Rise Set
Actual Time 7:52 AM MST 4:19 PM MST
Civil Twilight 7:16 AM MST 4:55 PM MST
Nautical Twilight 6:36 AM MST 5:35 PM MST
Astronomical Twilight 5:58 AM MST 6:13 PM MST
Moon 7:39 AM MST (1/1) 5:14 PM MST (1/1)
Length of Visible Light 9h 39m
Length of Day
8h 27m
New Moon, 0% of the Moon is Illuminated
Jan 1
New Moon
Jan 7
First Quarter
Jan 15
Full
Jan 23
Last Quarter
Jan 30
New

Hourly Weather History & Observations

Time (MST) Temp. Windchill Dew Point Humidity Pressure Visibility Wind Dir Wind Speed Gust Speed Precip Events Conditions
12:53 AM 3.0 °F -4.4 °F -4.0 °F 73% 30.30 in 6.0 mi WNW 3.5 mph - N/A   Haze
1:53 AM 3.0 °F - -2.9 °F 76% 30.32 in 10.0 mi Calm Calm - N/A   Overcast
2:53 AM 3.9 °F -9.4 °F -2.0 °F 76% 30.32 in 10.0 mi SW 8.1 mph - N/A   Overcast
3:43 AM 1.9 °F -10.6 °F -4.0 °F 76% 30.20 in 10.0 mi WSW 6.9 mph - N/A   Partly Cloudy
3:53 AM 1.9 °F -10.6 °F -4.0 °F 76% 30.36 in 10.0 mi WSW 6.9 mph - N/A   Partly Cloudy
4:53 AM -0.0 °F -11.6 °F -5.1 °F 79% 30.38 in 10.0 mi West 5.8 mph - N/A   Mostly Cloudy
5:53 AM 3.9 °F -9.4 °F -2.0 °F 76% 30.40 in 10.0 mi WNW 8.1 mph - N/A   Overcast
6:53 AM 5.0 °F -11.6 °F -2.9 °F 70% 30.44 in 10.0 mi NW 12.7 mph - N/A   Overcast
7:53 AM 5.0 °F -10.0 °F -2.9 °F 70% 30.47 in 10.0 mi NW 10.4 mph - N/A   Overcast
8:53 AM 5.0 °F -10.0 °F -4.0 °F 66% 30.50 in 9.0 mi NNW 10.4 mph - N/A   Overcast
9:53 AM 5.0 °F -6.9 °F -2.9 °F 70% 30.53 in 4.0 mi West 6.9 mph - 0.00 in Snow Light Snow
10:16 AM 6.1 °F -5.6 °F -2.0 °F 69% 30.37 in 2.5 mi NW 6.9 mph - 0.00 in Snow Light Snow
10:23 AM 5.0 °F -6.9 °F -2.0 °F 73% 30.37 in 4.0 mi WNW 6.9 mph - 0.00 in   Haze
10:53 AM 6.1 °F -5.6 °F -2.0 °F 69% 30.53 in 4.0 mi WNW 6.9 mph - 0.00 in   Haze
11:48 AM 6.8 °F -4.8 °F -0.4 °F 72% 30.36 in 10.0 mi WSW 6.9 mph - N/A   Overcast
11:53 AM 6.1 °F -7.8 °F -2.0 °F 69% 30.51 in 10.0 mi WSW 9.2 mph - N/A   Overcast
12:34 PM 6.1 °F -6.8 °F -0.9 °F 73% 30.34 in 10.0 mi WSW 8.1 mph - N/A   Overcast
12:53 PM 6.1 °F -8.7 °F -0.9 °F 73% 30.49 in 10.0 mi WSW 10.4 mph - N/A   Overcast
1:53 PM 7.0 °F -5.7 °F -0.9 °F 70% 30.47 in 8.0 mi WSW 8.1 mph - N/A   Overcast
2:53 PM 7.0 °F -1.7 °F -0.0 °F 73% 30.46 in 10.0 mi West 4.6 mph - N/A   Overcast
3:33 PM 7.0 °F -4.5 °F -0.0 °F 73% 30.31 in 10.0 mi SW 6.9 mph - N/A   Overcast
3:53 PM 7.0 °F 0.1 °F -0.0 °F 73% 30.46 in 4.0 mi SSW 3.5 mph - 0.00 in Snow Light Snow
4:53 PM 7.0 °F -1.7 °F -0.0 °F 73% 30.47 in 2.5 mi SW 4.6 mph - 0.00 in Snow Light Snow
5:06 PM 7.0 °F -3.3 °F 1.0 °F 77% 30.31 in 1.8 mi SW 5.8 mph - 0.00 in Snow Light Snow
5:53 PM 7.0 °F - 1.9 °F 80% 30.45 in 2.0 mi Calm Calm - 0.01 in Snow Light Snow
6:05 PM 7.0 °F - 1.9 °F 80% 30.30 in 2.0 mi Calm Calm - 0.01 in Snow Light Snow
6:20 PM 7.0 °F - 1.9 °F 80% 30.30 in 3.0 mi Calm Calm - 0.01 in Snow Light Snow
6:53 PM 8.1 °F - 3.0 °F 80% 30.44 in 3.0 mi Calm Calm - 0.01 in Snow Light Snow
7:02 PM 8.1 °F - 1.9 °F 76% 30.28 in 2.5 mi Calm Calm - 0.00 in Snow Light Snow
7:33 PM 8.1 °F - 3.0 °F 80% 30.28 in 4.0 mi Calm Calm - 0.00 in Snow Light Snow
7:43 PM 8.1 °F - 3.0 °F 80% 30.28 in 5.0 mi Calm Calm - 0.00 in Snow Light Snow
7:53 PM 8.1 °F - 3.0 °F 80% 30.43 in 6.0 mi Calm Calm - 0.00 in Snow Light Snow
8:53 PM 9.0 °F 0.6 °F 3.0 °F 77% 30.42 in 7.0 mi East 4.6 mph - 0.00 in   Overcast
9:53 PM 8.1 °F -3.2 °F 3.0 °F 80% 30.42 in 10.0 mi East 6.9 mph - N/A   Overcast
10:53 PM 9.0 °F -3.2 °F 3.0 °F 77% 30.42 in 10.0 mi East 8.1 mph - N/A   Overcast
11:53 PM 7.0 °F -6.6 °F 1.9 °F 80% 30.42 in 10.0 mi East 9.2 mph - N/A   Overcast